IZ3TCG-13 Weather Reports


Display with metric or nautical units.
time (UTC)temp
F
wind
direction
speed
MPH
gust
MPH
rain 1hr
in
rain 24hr
in
rain mn
in
humidity
%
barometer
mb
20260504231603 60 58 1.0 2.0 0.00 0.00 0.00 79 1011.3
20260504231203 60 67 0.0 2.0 0.00 0.00 0.00 77 1011.6
20260504230804 60 87 0.0 2.0 0.00 0.00 0.00 77 1011.3
20260504230403 60 88 0.0 2.0 0.00 0.00 0.00 77 1011.5
20260504230215 60 87 0.0 2.0 0.00 0.00 0.00 77 1011.4
20260504225603 60 90 0.0 2.0 0.00 0.00 0.00 78 1011.6
20260504225203 60 0 0.0 0.0 0.00 0.00 0.00 76 1011.5
20260504224804 60 0 0.0 0.0 0.00 0.00 0.00 76 1011.4
20260504224404 60 0 0.0 0.0 0.00 0.00 0.00 76 1011.5
20260504224003 60 0 0.0 0.0 0.00 0.00 0.00 77 1011.5
20260504223603 60 0 0.0 0.0 0.00 0.00 0.00 77 1011.7
20260504223203 60 0 0.0 0.0 0.00 0.00 0.00 77 1011.6
20260504222803 60 303 0.0 2.0 0.00 0.00 0.00 77 1011.8
20260504222403 60 322 0.0 2.0 0.00 0.00 0.00 77 1011.6
20260504222004 60 328 0.0 2.0 0.00 0.00 0.00 77 1011.6
20260504221605 60 0 0.0 0.0 0.00 0.00 0.00 78 1011.6
20260504221203 61 315 0.0 2.0 0.00 0.00 0.00 77 1011.5
20260504220803 61 315 0.0 2.0 0.00 0.00 0.00 76 1011.6
20260504220617 61 315 0.0 2.0 0.00 0.00 0.00 75 1011.7
20260504220008 61 327 0.0 2.0 0.00 0.00 0.00 76 1011.7
20260504215603 61 326 1.0 2.0 0.00 0.00 0.00 76 1011.7
20260504215204 61 300 1.0 2.0 0.00 0.00 0.00 77 1011.7
20260504214803 61 277 0.0 2.0 0.00 0.00 0.00 77 1011.6
20260504214403 61 270 0.0 2.0 0.00 0.00 0.00 77 1011.6
20260504214003 60 0 0.0 0.0 0.00 0.00 0.00 78 1011.5
20260504213604 60 0 0.0 0.0 0.00 0.00 0.00 78 1011.6
20260504213417 60 0 0.0 0.0 0.00 0.00 0.00 78 1011.7
20260504212803 59 0 0.0 0.0 0.00 0.00 0.00 79 1011.4
20260504212403 60 0 0.0 0.0 0.00 0.00 0.00 79 1011.5
20260504212003 60 0 0.0 0.0 0.00 0.00 0.00 79 1011.7
20260504211603 60 0 0.0 0.0 0.00 0.00 0.00 78 1011.4
20260504211204 60 202 0.0 2.0 0.00 0.00 0.00 78 1011.6
20260504210804 60 202 0.0 2.0 0.00 0.00 0.00 77 1011.5
20260504210403 60 202 0.0 2.0 0.00 0.00 0.00 77 1011.7
20260504210004 60 0 0.0 0.0 0.00 0.00 0.00 77 1011.7
20260504205816 60 0 0.0 0.0 0.00 0.00 0.00 77 1011.5
20260504205203 61 0 0.0 0.0 0.00 0.00 0.00 76 1011.5
20260504204804 61 180 0.0 2.0 0.00 0.00 0.00 75 1011.6
20260504204403 61 180 0.0 2.0 0.00 0.00 0.00 75 1011.4
20260504204004 61 195 0.0 2.0 0.00 0.00 0.00 75 1011.6
20260504203603 61 214 0.0 2.0 0.00 0.00 0.00 75 1011.6
20260504203204 61 218 0.0 2.0 0.00 0.00 0.00 75 1011.4
20260504202804 61 0 0.0 0.0 0.00 0.00 0.00 76 1011.6
20260504202404 60 0 0.0 0.0 0.00 0.00 0.00 76 1011.6
20260504202004 60 0 0.0 0.0 0.00 0.00 0.00 76 1011.7
20260504201815 60 0 0.0 0.0 0.00 0.00 0.00 76 1011.4
20260504201204 60 0 0.0 0.0 0.00 0.00 0.00 76 1011.5
20260504200803 60 0 0.0 0.0 0.00 0.00 0.00 76 1011.5
20260504200404 61 0 0.0 0.0 0.00 0.00 0.00 75 1011.5
20260504200217 61 0 0.0 0.0 0.00 0.00 0.00 74 1011.5
20260504195817 61 0 0.0 0.0 0.00 0.00 0.00 73 1011.5
20260504195204 62 0 0.0 0.0 0.00 0.00 0.00 72 1011.2
20260504194803 62 0 0.0 0.0 0.00 0.00 0.00 72 1011.5
20260504194404 62 0 0.0 0.0 0.00 0.00 0.00 71 1011.4
20260504194214 62 0 0.0 0.0 0.00 0.00 0.00 71 1011.3
20260504193603 63 0 0.0 0.0 0.00 0.00 0.00 70 1011.4
20260504193203 63 22 0.0 2.0 0.00 0.00 0.00 69 1011.3
20260504192804 64 46 0.0 4.0 0.00 0.00 0.00 68 1011.4
20260504192617 64 46 0.0 4.0 0.00 0.00 0.00 67 1011.2
20260504192216 64 45 0.0 4.0 0.00 0.00 0.00 66 1011.3
20260504191603 64 94 0.0 4.0 0.00 0.00 0.00 65 1011.2
20260504191203 65 80 1.0 4.0 0.00 0.00 0.00 64 1011.6
20260504190803 65 86 0.0 4.0 0.00 0.00 0.00 62 1011.4
20260504190403 65 89 2.0 4.0 0.00 0.00 0.00 61 1011.5
20260504190003 65 89 1.0 4.0 0.00 0.00 0.00 61 1011.3
20260504185817 65 84 2.0 4.0 0.00 0.00 0.00 61 1011.2
20260504185204 65 74 1.0 2.0 0.00 0.00 0.00 61 1011.3
20260504184803 65 90 0.0 2.0 0.00 0.00 0.00 61 1011.1
20260504184403 65 112 0.0 2.0 0.00 0.00 0.00 61 1011.4
20260504184215 66 121 0.0 2.0 0.00 0.00 0.00 60 1011.3
20260504183603 67 136 0.0 4.0 0.00 0.00 0.00 60 1011.2
20260504183204 67 155 0.0 4.0 0.00 0.00 0.00 59 1011.2
20260504182803 67 153 0.0 2.0 0.00 0.00 0.00 58 1011.2
20260504182404 67 113 1.0 2.0 0.00 0.00 0.00 58 1011.0
20260504182217 67 60 0.0 2.0 0.00 0.00 0.00 58 1011.2
20260504181603 68 57 0.0 2.0 0.00 0.00 0.00 58 1011.2
20260504181203 69 94 1.0 4.0 0.00 0.00 0.00 56 1011.1
20260504181015 69 100 0.0 4.0 0.00 0.00 0.00 57 1011.1
20260504180403 70 118 2.0 4.0 0.00 0.00 0.00 55 1011.2
20260504180003 70 119 1.0 4.0 0.00 0.00 0.00 54 1010.9
20260504175813 70 120 0.0 4.0 0.00 0.00 0.00 53 1011.1
20260504175203 71 159 2.0 4.0 0.00 0.00 0.00 52 1011.0
20260504174803 71 160 1.0 4.0 0.00 0.00 0.00 53 1010.8
20260504174404 72 131 2.0 4.0 0.00 0.00 0.00 51 1010.9
20260504174215 72 127 0.0 9.0 0.00 0.00 0.00 52 1010.8
20260504173603 73 105 0.0 9.0 0.00 0.00 0.00 53 1010.8
20260504173204 73 91 4.0 9.0 0.00 0.00 0.00 52 1011.0
20260504173013 73 80 1.0 8.0 0.00 0.00 0.00 53 1010.8
20260504172403 73 88 3.0 9.0 0.00 0.00 0.00 52 1010.7
20260504172004 74 99 4.0 9.0 0.00 0.00 0.00 50 1010.9
20260504171603 75 108 1.0 9.0 0.00 0.00 0.00 47 1010.7
20260504171203 75 81 0.0 4.0 0.00 0.00 0.00 44 1010.5
20260504170803 74 88 0.0 4.0 0.00 0.00 0.00 44 1010.5
20260504170403 74 82 0.0 4.0 0.00 0.00 0.00 45 1010.7
20260504160403 75 79 3.0 13.0 0.00 0.00 0.00 49 1010.9
20260504160214 75 77 4.0 13.0 0.00 0.00 0.00 48 1010.9
20260504150803 77 71 4.0 7.0 0.00 0.00 0.00 51 1011.2
20260504150403 76 78 3.0 7.0 0.00 0.00 0.00 54 1011.1
20260504141203 78 90 4.0 8.0 0.00 0.00 0.00 53 1011.4
20260504140804 78 90 2.0 8.0 0.00 0.00 0.00 52 1011.2
20260504140403 79 83 4.0 9.0 0.00 0.00 0.00 52 1011.5
20260504130803 78 107 2.0 9.0 0.00 0.00 0.00 52 1011.7
20260504130404 78 92 2.0 9.0 0.00 0.00 0.00 55 1011.9
20260504120217 81 197 0.0 4.0 0.00 0.00 0.00 42 1012.2
20260504110613 79 100 2.0 4.0 0.00 0.00 0.00 48 1012.6
20260504100403 77 154 1.0 4.0 0.00 0.00 0.00 54 1013.3
20260504082003 72 5 2.0 4.0 0.00 0.00 0.00 62 1011.8
20260504081603 72 20 0.0 4.0 0.00 0.00 0.00 62 1012.0
20260504081203 71 38 0.0 4.0 0.00 0.00 0.00 63 1011.9
20260504080803 72 11 2.0 4.0 0.00 0.00 0.00 63 1012.0
20260504080617 71 360 1.0 4.0 0.00 0.00 0.00 64 1011.9
20260504080216 71 352 1.0 4.0 0.00 0.00 0.00 64 1011.9
20260504070404 66 301 2.0 7.0 0.00 0.00 0.00 73 1011.6
20260504050404 58 352 1.0 4.0 0.00 0.00 0.00 81 1011.2
20260504050003 57 342 0.0 4.0 0.00 0.00 0.00 81 1011.1
20260504045603 57 341 0.0 4.0 0.00 0.00 0.00 82 1011.2
20260504045203 57 352 1.0 4.0 0.00 0.00 0.00 82 1010.9
20260504044803 57 12 1.0 4.0 0.00 0.00 0.00 82 1010.9
20260504044616 57 18 1.0 4.0 0.00 0.00 0.00 82 1011.0
20260504044003 57 2 0.0 4.0 0.00 0.00 0.00 82 1010.9
20260504043604 57 342 0.0 4.0 0.00 0.00 0.00 83 1010.9
20260504043204 57 341 1.0 4.0 0.00 0.00 0.00 83 1010.7
20260504042804 57 339 0.0 2.0 0.00 0.00 0.00 84 1011.0
20260504042404 57 340 1.0 2.0 0.00 0.00 0.00 84 1011.0
20260504042003 57 338 0.0 2.0 0.00 0.00 0.00 84 1010.8
20260504041604 57 341 0.0 2.0 0.00 0.00 0.00 85 1010.7
20260504041204 56 358 0.0 2.0 0.00 0.00 0.00 85 1010.6
20260504041015 56 360 0.0 2.0 0.00 0.00 0.00 85 1010.8
20260504040403 56 360 0.0 2.0 0.00 0.00 0.00 86 1010.7
20260504040004 56 0 0.0 0.0 0.00 0.00 0.00 86 1010.6
20260504035603 56 0 0.0 0.0 0.00 0.00 0.00 86 1010.7
20260504035204 56 0 0.0 0.0 0.00 0.00 0.00 86 1010.9
20260504035017 56 0 0.0 0.0 0.00 0.00 0.00 86 1010.7
20260504034616 56 0 0.0 0.0 0.00 0.00 0.00 86 1010.7
20260504034003 56 0 0.0 0.0 0.00 0.00 0.00 87 1010.5
20260504033815 56 0 0.0 0.0 0.00 0.00 0.00 87 1010.5
20260504033415 56 0 0.0 0.0 0.00 0.00 0.00 86 1010.9
20260504032804 56 0 0.0 0.0 0.00 0.00 0.00 85 1011.0
20260504032403 57 0 0.0 0.0 0.00 0.00 0.00 85 1010.7
20260504032004 57 315 0.0 2.0 0.00 0.00 0.00 84 1010.6
20260504031604 57 304 0.0 2.0 0.00 0.00 0.00 83 1010.6
20260504031417 58 301 0.0 2.0 0.00 0.00 0.00 83 1010.8
20260504030803 58 295 0.0 2.0 0.00 0.00 0.00 83 1010.8
20260504030615 58 304 0.0 2.0 0.00 0.00 0.00 83 1010.9
20260504030004 58 308 0.0 2.0 0.00 0.00 0.00 83 1010.9
20260504025604 58 315 0.0 2.0 0.00 0.00 0.00 83 1010.9
20260504025203 58 337 0.0 2.0 0.00 0.00 0.00 84 1010.7
20260504024803 58 337 0.0 2.0 0.00 0.00 0.00 83 1010.9
20260504024403 58 342 0.0 2.0 0.00 0.00 0.00 84 1011.0
20260504024003 57 360 0.0 2.0 0.00 0.00 0.00 85 1011.0
20260504023603 57 360 0.0 2.0 0.00 0.00 0.00 85 1011.0
20260504023204 57 0 0.0 0.0 0.00 0.00 0.00 86 1011.1
20260504022803 57 0 0.0 0.0 0.00 0.00 0.00 86 1011.0
20260504022404 58 0 0.0 0.0 0.00 0.00 0.00 85 1010.9
20260504022004 58 0 0.0 0.0 0.00 0.00 0.00 85 1010.9
20260504021603 58 90 0.0 2.0 0.00 0.00 0.00 85 1010.9
20260504021204 57 90 0.0 2.0 0.00 0.00 0.00 85 1010.8
20260504020803 57 0 0.0 0.0 0.00 0.00 0.00 87 1011.0
20260504020403 57 0 0.0 0.0 0.00 0.00 0.00 87 1010.8
20260504020004 57 0 0.0 0.0 0.00 0.00 0.00 87 1010.9
20260504015603 57 0 0.0 0.0 0.00 0.00 0.00 87 1011.0
20260504015204 57 0 0.0 0.0 0.00 0.00 0.00 86 1010.8
20260504014804 57 0 0.0 0.0 0.00 0.00 0.00 86 1011.0
20260504014404 57 0 0.0 0.0 0.00 0.00 0.00 86 1010.9
20260504014217 57 0 0.0 0.0 0.00 0.00 0.00 87 1010.8
20260504013603 57 90 0.0 2.0 0.00 0.00 0.00 87 1011.0
20260504013203 57 90 0.0 2.0 0.00 0.00 0.00 87 1010.9
20260504012803 57 90 0.0 2.0 0.00 0.00 0.00 87 1011.0
20260504012614 57 90 0.0 2.0 0.00 0.00 0.00 87 1011.0
20260504012003 57 90 0.0 2.0 0.00 0.00 0.00 87 1010.9
20260504011604 57 0 0.0 0.0 0.00 0.00 0.00 88 1010.9
20260504011418 57 0 0.0 0.0 0.00 0.00 0.00 88 1011.1
20260504011017 57 0 0.0 0.0 0.00 0.00 0.00 88 1011.1
20260504010403 57 0 0.0 0.0 0.00 0.00 0.00 87 1010.9
20260504010216 57 0 0.0 0.0 0.00 0.00 0.00 87 1010.9
20260504005603 57 0 0.0 0.0 0.00 0.00 0.00 87 1010.8
20260504005204 57 0 0.0 0.0 0.00 0.00 0.00 86 1011.0
20260504004803 57 0 0.0 0.0 0.00 0.00 0.00 86 1010.9
20260504004403 57 0 0.0 0.0 0.00 0.00 0.00 86 1011.1
20260504004218 57 0 0.0 0.0 0.00 0.00 0.00 86 1011.1
20260504003603 57 0 0.0 0.0 0.00 0.00 0.00 85 1011.0
20260504003204 58 0 0.0 0.0 0.00 0.00 0.00 86 1011.1
20260504002803 58 0 0.0 0.0 0.00 0.00 0.00 85 1011.1
20260504002404 58 0 0.0 0.0 0.00 0.00 0.00 84 1011.2
20260504002003 58 0 0.0 0.0 0.00 0.00 0.00 84 1011.1
20260504001814 58 0 0.0 0.0 0.00 0.00 0.00 84 1011.2
20260504001203 58 90 0.0 2.0 0.00 0.00 0.00 85 1011.1
20260504000803 58 90 0.0 2.0 0.00 0.00 0.00 85 1011.2
20260504000403 59 90 1.0 2.0 0.00 0.00 0.00 83 1011.4
20260504000004 59 90 1.0 2.0 0.00 0.00 0.00 83 1011.2
20260503235603 59 90 0.0 2.0 0.00 0.00 0.00 84 1011.3
20260503235415 59 90 0.0 2.0 0.00 0.00 0.00 83 1011.3
20260503234804 59 90 0.0 2.0 0.00 0.00 0.00 84 1011.3
20260503234403 59 0 0.0 0.0 0.00 0.00 0.00 85 1011.6
20260503234003 59 0 0.0 0.0 0.00 0.00 0.00 85 1011.3
20260503233603 59 0 0.0 0.0 0.00 0.00 0.00 84 1011.3
20260503233417 59 0 0.0 0.0 0.00 0.00 0.00 84 1011.5
20260503232803 60 90 0.0 2.0 0.00 0.00 0.00 83 1011.6
20260503232403 60 90 0.0 2.0 0.00 0.00 0.00 83 1011.5
20260503232004 60 90 0.0 2.0 0.00 0.00 0.00 84 1011.5